Location: Zerbst
(51.9650°N, 12.0766°E)
Time: 11:45:04
(UTC+02:00)

ISS - Pass Details

Date: 20 May 2017
Orbit: 401 x 407 km, 51.6° (Epoch: 25 September)

Event Time Altitude Azimuth Distance (km) Brightness Sun altitude
Exits shadow 00:48:29 16° 98° (E) 1,182 -1.6 -17.9°
Drops below altitude 10° 00:49:23 10° 88° (E) 1,490 -1.0 -17.9°
Sets 00:51:37 0° 77° (ENE) 2,353 0.2 -18.0°
